SNAP-3 JIMI

Last updated on Sat Aug 15 2026 00:03:44 GMT+0000 (Coordinated Universal Time)

1 40975U 15058M 26226.55740823 .00002355 00000+0 16599-3 0 9993 2 40975 64.7646 34.9934 0110143 32.6315 328.1545 15.02928686122990
UTC large
Height (km)
Speed (km/s)
/
Latitude / Longitude
Inclination (degrees)
Orbital Period (minutes)
Azimuth
Elevation
Range (km)
Doppler Factor

Next 0 passes for location: London (51.5072 / 0.1276)

No passes found over London.
SNAP-3 JIMI